NEE-01 PEGASO

Last updated on Thu Nov 21 2024 00:03:39 GMT+0000 (Coordinated Universal Time)

1 39151U 13018B 24325.54446561 .00006719 00000+0 73238-3 0 9991 2 39151 98.0524 84.5876 0013389 247.5752 112.4046 14.88246715625202
UTC large
Height (km)
Speed (km/s)
/
Latitude / Longitude
Inclination (degrees)
Orbital Period (minutes)
Azimuth
Elevation
Range (km)
Doppler Factor

Next 0 passes for location: London (51.5072 / 0.1276)

Sorry there are no passes over London.